This is the latest recevied weather packets stored in our database for station/object N8ESC. If no packets are shown the sender has not sent any weather packets the latest 10 day(s).
| Time | Temp. | Humidity | Pressure | Rain* | Wind** | Luminosity | Snow |
|---|---|---|---|---|---|---|---|
| 1778034952 | 5° C | 61% | 1008.8 hPa | 0 mm | - | 0 W/m² | - |
| 1778034650 | 5° C | 61% | 1008.8 hPa | 0 mm | - | 0 W/m² | - |
| 1778034347 | 5° C | 61% | 1008.6 hPa | 0 mm | - | 0 W/m² | - |
| 1778034044 | 5° C | 61% | 1008.6 hPa | 0 mm | - | 0 W/m² | - |
| 1778033742 | 5° C | 61% | 1008.4 hPa | 0 mm | - | 0 W/m² | - |
| 1778033439 | 5° C | 61% | 1008.4 hPa | 0 mm | - | 0 W/m² | - |
| 1778033136 | 5° C | 61% | 1008.3 hPa | 0 mm | - | 0 W/m² | - |
| 1778032833 | 5° C | 61% | 1008.4 hPa | 0 mm | - | 0 W/m² | - |
| 1778032531 | 5° C | 62% | 1008.4 hPa | 0 mm | - | 0 W/m² | - |
| 1778032228 | 5° C | 62% | 1008.3 hPa | 0 mm | - | 0 W/m² | - |
| 1778031925 | 5° C | 63% | 1008.3 hPa | 0 mm | - | 0 W/m² | - |
| 1778031621 | 5° C | 63% | 1008.3 hPa | 0 mm | - | 0 W/m² | - |
| 1778031319 | 5.56° C | 62% | 1008.2 hPa | 0 mm | - | 0 W/m² | - |
| 1778031016 | 5.56° C | 62% | 1008.2 hPa | 0 mm | - | 0 W/m² | - |
| 1778030712 | 5.56° C | 60% | 1008 hPa | 0 mm | - | 0 W/m² | - |
| 1778030409 | 5.56° C | 62% | 1007.9 hPa | 0 mm | - | 0 W/m² | - |
| 1778030106 | 5.56° C | 62% | 1007.9 hPa | 0 mm | - | 0 W/m² | - |
| 1778029802 | 6.11° C | 61% | 1007.9 hPa | 0 mm | - | 1 W/m² | - |
| 1778029502 | 6.11° C | 60% | 1008 hPa | 0 mm | - | 1 W/m² | - |
| 1778029197 | 6.11° C | 61% | 1007.7 hPa | 0 mm | - | 2 W/m² | - |
| 1778028895 | 6.11° C | 61% | 1007.8 hPa | 0 mm | - | 3 W/m² | - |
| 1778028590 | 6.11° C | 59% | 1007.7 hPa | 0 mm | - | 4 W/m² | - |
| 1778028289 | 6.67° C | 60% | 1007.6 hPa | 0 mm | - | 6 W/m² | - |
| 1778027984 | 7.78° C | 56% | 1007.5 hPa | 0 mm | - | 8 W/m² | - |
| 1778027681 | 7.78° C | 44% | 1007.4 hPa | 0 mm | - | 10 W/m² | - |
* Rain latest hour (hover to see other rain measurements)
** Current wind speed in m/s (hover to see current wind gust speed)